Regional Weather Roundup
Issued by NWS

Home | Current Version | Previous Version | Text Only | Print | Product List | Glossary Off
Versions: 1 2 3 4 5 6 7 8 9 10 11 12 13 14 15 16 17 18 19 20 21 22 23 24 25 26 27 28 29 30 31 32 33 34 35 36 37 38 39 40 41 42 43 44 45 46 47 48 49 50

000
ASUS43 KLOT 301212
RWRIL

ILLINOIS REGIONAL WEATHER ROUNDUP
NATIONAL WEATHER SERVICE CHICAGO/ROMEOVILLE IL
700 AM CDT SUN AUG 30 2015

NOTE: "FAIR" INDICATES FEW OR NO CLOUDS BELOW 12,000 FEET WITH NO
SIGNIFICANT WEATHER AND/OR OBSTRUCTIONS TO VISIBILITY.

* THESE STATIONS ARE NOT UNDER NWS QUALITY CONTROL. THEY ALSO MAY NOT
  REPORT WEATHER SUCH AS PRECIPITATION OR FOG.

ILZ001-002-007-009-015-016-024-301300-
NORTHWEST ILLINOIS

CITY           SKY/WX    TMP DP  RH WIND       PRES   REMARKS
MOLINE         FOG       63  61  93 CALM      30.06R VSB<1/4
6HR MIN TEMP:  59; 6HR MAX TEMP:  63;

STERLING*      MOCLDY   N/A N/A N/A N3        30.04R
SAVANNA*         N/A     61  58  92 CALM      30.06R FOG
$$

ILZ003-004-008-010-011-017-018-301300-
NORTH CENTRAL ILLINOIS

CITY           SKY/WX    TMP DP  RH WIND       PRES   REMARKS
ROCKFORD       CLOUDY    65  62  90 N5        30.08R FOG
6HR MIN TEMP:  65; 6HR MAX TEMP:  67;

FREEPORT*      CLOUDY    63  63  99 CALM      30.09R FOG
ROCHELLE*      CLOUDY    64  63  97 CALM      30.07R FOG
DE KALB*       CLOUDY    64  63  97 CALM      30.07S FOG
PERU*          FOG       65  64  98 NE5       30.07R VSB 1/4
$$

ILZ005-006-012>014-019>023-301300-
NORTHEAST ILLINOIS

CITY           SKY/WX    TMP DP  RH WIND       PRES   REMARKS
CHICAGO-OHARE  CLOUDY    65  64  97 CALM      30.06R FOG
6HR MIN TEMP:  64; 6HR MAX TEMP:  65;

CHICAGO-MIDWAY CLOUDY    67  63  87 CALM      30.06R FOG
6HR MIN TEMP:  66; 6HR MAX TEMP:  69;

AURORA         CLOUDY    63  62  97 CALM      30.07R FOG
6HR MIN TEMP:  62; 6HR MAX TEMP:  67;

LANSING*       CLOUDY    64  64  99 CALM      30.07R FOG
JOLIET*        CLOUDY    65  65  97 NE5       30.07R FOG
WAUKEGAN       FOG       63  63 100 CALM      30.06R VSB 1/4
6HR MIN TEMP:  63; 6HR MAX TEMP:  63;

DUPAGE AIRPORT CLOUDY    65  63  93 CALM      30.06R FOG
6HR MIN TEMP:  64; 6HR MAX TEMP:  66;

KANKAKEE*      FOG       66  66  99 NE6       30.06R VSB 1/2
WHEELING       CLOUDY    65  63  93 CALM      30.07R FOG
6HR MIN TEMP:  64; 6HR MAX TEMP:  65;

MORRIS*        FOG       64  64  97 CALM      30.06R VSB 3/4
ROMEOVILLE*    CLOUDY    64  64  99 CALM      30.07R FOG
NORTHERLY ISL    N/A     63  62  97 CALM        N/A
$$

LMZ740>746-301300-
SOUTHERN LAKE MICHIGAN

STATION/POSITION SKY/WX   TEMP    WIND        PRES    VSBY  WAVE
                          AIR SEA DIR/SP/G                  HT/PER
                          (F)     (DEG/KT/KT) (MB)    (MI)  (FT/S)
SOUTHERN BUOY              67 68  360/  8/ 10 1017.2R         1
WILMETTE HARBOR            60 58  120/  4/  4   N/A           1/ 3
HARRISON CRIB              63     330/  9/ 10   N/A
BURNHAM HARBOR             63      CALM  /  6   N/A
BURNS HARBOR               67     340/  7/  8 1017.9R
MICHIGAN CITY              68     330/  6/  6   N/A
MICHIGAN CITY 6N           68 70  340/  6/  8   N/A           1/ 3
ST. JOSEPH                 69 70   40/  4/  6   N/A           1/ 3
$$

ILZ025>027-034>036-040-047-049-050-058-095>099-301300-
WEST-CENTRAL ILLINOIS

CITY           SKY/WX    TMP DP  RH WIND       PRES   REMARKS
QUINCY         FOG       68  67  96 NE7       30.03R VSB 1/4
GALESBURG*     DRZL/FOG  63  63  99 NE5       30.06R VSB<1/4
MACOMB*        FOG       66  66 100 NE3       30.07R VSB<1/4
JACKSONVILLE*  CLOUDY    67  66  96 CALM      30.04R FOG
PITTSFIELD*    FOG       70  68  95 NE3       30.04R VSB<1/4
$$

ILZ028>032-037-038-041>044-048-051>054-059>061-301300-
CENTRAL ILLINOIS

CITY           SKY/WX    TMP DP  RH WIND       PRES   REMARKS
PONTIAC        FOG       68  68 100 NE5       30.06R VSB 1/4
BLOOMINGTON    FOG       68  68 100 NE5       30.06R VSB 1/8
DECATUR        CLOUDY    69  65  86 CALM      30.05R
PEORIA         FOG       69  66  90 NE3       30.05R VSB 1/8
6HR MIN TEMP:  68; 6HR MAX TEMP:  72;

LACON*         FOG       65  64  97 CALM      30.05R VSB<1/4
LINCOLN*       CLOUDY    67  65  93 CALM      30.04R FOG
SPRINGFIELD    PTCLDY    65  64  97 CALM      30.04R FOG
6HR MIN TEMP:  64; 6HR MAX TEMP:  73;

TAYLORVILLE    PTCLDY    64  64 100 CALM      30.05R FOG
$$

ILZ033-039-045-046-055>057-062-063-301300-
EAST-CENTRAL ILLINOIS

CITY           SKY/WX    TMP DP  RH WIND       PRES   REMARKS
CHAMPAIGN      FOG       64  62  93 CALM      30.06R VSB 1
RANTOUL*       FOG       67  66  99 CALM      30.06R VSB 1/4
MATTOON        CLOUDY    67  63  87 S6        30.05R
PARIS*         CLEAR     63  62  99 CALM      30.07R FOG
$$

ILZ079-100>102-301300-
SOUTHWEST ILLINOIS

CITY           SKY/WX    TMP DP  RH WIND       PRES   REMARKS
ALTON          PTCLDY    66  64  94 CALM      30.04R FOG
BELLEVILLE     MOCLDY    67  67 100 E3        30.03R
CAHOKIA*       CLEAR     67  64  90 CALM      30.03R
SPARTA*        PTCLDY    65  64  97 CALM      30.06R
$$

ILZ064>066-069>071-074>076-080>082-084>086-088>090-092>094-301300-
SOUTH-CENTRAL ILLINOIS

CITY           SKY/WX    TMP DP  RH WIND       PRES   REMARKS
CARBONDALE     PTCLDY    69  66  90 SE3       30.04R
6HR MIN TEMP:  69; 6HR MAX TEMP:  72; 6HR PCP: TRACE;

CAIRO*         CLOUDY    70  70 100 CALM      30.06R FOG
EFFINGHAM*     CLOUDY    66  63  88 CALM      30.07R
MARION         CLOUDY    72  68  88 SE6       30.06R
MT. VERNON     CLOUDY    68  63  83 CALM      30.06R
SALEM*         MOCLDY    65  63  93 CALM      30.05S
METROPOLIS*    CLOUDY    71  71 100 CALM      30.07R
$$

ILZ067-068-072-073-078-083-087-091-301300-
SOUTHEAST ILLINOIS

CITY           SKY/WX    TMP DP  RH WIND       PRES   REMARKS
LAWRENCEVILLE  FOG       66  65  96 CALM      30.07R VSB<1/4
FLORA*         PTCLDY    65  64  96 CALM      30.06R FOG
FAIRFIELD*     CLOUDY    69  67  92 CALM      30.05R
HARRISBURG*    LGT RAIN  70  69  97 CALM      30.06R
ROBINSON*      FOG       61  60  97 CALM      30.07R VSB<1/4
CARMI*         CLOUDY    69  69  99 CALM      30.06R FOG
$$

ABBREVIATIONS USED IN REMARKS
   TC - TEMPERATURE IN CELSIUS
  WCI - WIND CHILL INDEX
   HX - HEAT INDEX
  VSB - VISIBILITY
$$



USA.gov is the U.S. government's official web portal to all federal, state and local government web resources and services.